Fort Stockton, TX

10:57 AM CDT on July 28, 2017 (GMT -0500)
Fort Stockton-Pecos County

Weather History for KFST - April, 2014

Change the Weather History Date:

Tuesday, April 8, 2014

  Actual Average Record
Temperature  
Mean Temperature 58 °F -  
Max Temperature 77 °F 76 °F 96 °F (2017)
Min Temperature 41 °F 49 °F 30 °F (2007)
Degree Days  
Heating Degree Days 7    
Growing Degree Days 8 (Base 50)    
Moisture  
Dew Point 23 °F    
Average Humidity 30    
Maximum Humidity 60    
Minimum Humidity 10    
Precipitation  
Precipitation 0.00 in - - ()
Sea Level Pressure  
Sea Level Pressure 30.17 in    
Wind  
Wind Speed 5 mph (South)    
Max Wind Speed 9 mph    
Max Gust Speed -    
Visibility 10 miles    
Events      
Averages and records for this station are not official NWS values.
T = Trace of Precipitation, MM = Missing Value Source: NWS Daily Summary

Daily Weather History Graph

Daily Weather History Graph

Search for Another Location

Airport or City:

Trip Planner

Search our weather history database for the weather conditions in past years. The results will help you decide how hot, cold, wet, or windy it might be!

Date:

Astronomy

Apr. 08, 2014 Rise Set
Actual Time 7:32 AM CDT 8:15 PM CDT
Civil Twilight 7:07 AM CDT 8:39 PM CDT
Nautical Twilight 6:38 AM CDT 9:08 PM CDT
Astronomical Twilight 6:09 AM CDT 9:38 PM CDT
Moon 2:33 PM CDT (4/8) 3:23 AM CDT (4/8)
Length of Visible Light 13h 32m
Length of Day
12h 43m
Waxing Gibbous, 63% of the Moon is Illuminated
Apr 8
Waxing Gibbous
Apr 15
Full
Apr 22
Last Quarter
Apr 29
New
May 6
First Quarter

Hourly Weather History & Observations

Time (CDT) Temp. Windchill Dew Point Humidity Pressure Visibility Wind Dir Wind Speed Gust Speed Precip Events Conditions
12:53 AM 48.9 °F - 30.0 °F 48% 30.14 in 10.0 mi SSW 6.9 mph - N/A   Clear
1:53 AM 46.9 °F - 28.9 °F 50% 30.14 in 10.0 mi SSW 5.8 mph - N/A   Clear
2:53 AM 46.9 °F - 30.0 °F 52% 30.16 in 10.0 mi NE 6.9 mph - N/A   Clear
3:53 AM 45.0 °F - 28.9 °F 53% 30.17 in 10.0 mi Calm Calm - N/A   Clear
4:53 AM 44.1 °F - 28.9 °F 55% 30.17 in 10.0 mi Calm Calm - N/A   Clear
5:53 AM 42.1 °F 37.1 °F 28.9 °F 60% 30.20 in 10.0 mi SW 8.1 mph - N/A   Clear
6:53 AM 41.0 °F 39.0 °F 28.0 °F 60% 30.22 in 10.0 mi SW 3.5 mph - N/A   Clear
7:53 AM 42.1 °F 37.7 °F 28.0 °F 58% 30.24 in 10.0 mi SW 6.9 mph - N/A   Clear
8:53 AM 53.1 °F - 30.0 °F 41% 30.25 in 10.0 mi SW 4.6 mph - N/A   Clear
9:53 AM 55.9 °F - 28.0 °F 34% 30.27 in 10.0 mi WSW 4.6 mph - N/A   Clear
10:53 AM 60.1 °F - 21.9 °F 23% 30.27 in 10.0 mi Variable 4.6 mph - N/A   Clear
11:53 AM 64.0 °F - 21.0 °F 19% 30.27 in 10.0 mi Calm Calm - N/A   Clear
12:53 PM 66.9 °F - 21.0 °F 17% 30.24 in 10.0 mi Calm Calm - N/A   Clear
1:53 PM 70.0 °F - 21.9 °F 16% 30.21 in 10.0 mi North - - N/A   Clear
2:53 PM 73.0 °F - 21.0 °F 14% 30.17 in 10.0 mi Variable 3.5 mph - N/A   Clear
3:53 PM 73.9 °F - 19.0 °F 13% 30.14 in 10.0 mi North - - N/A   Clear
4:53 PM 75.0 °F - 17.1 °F 11% 30.12 in 10.0 mi Variable 3.5 mph - N/A   Clear
5:53 PM 75.9 °F - 16.0 °F 10% 30.10 in 10.0 mi Variable 5.8 mph - N/A   Clear
6:53 PM 75.9 °F - 15.1 °F 10% 30.10 in 10.0 mi Calm Calm - N/A   Clear
7:53 PM 73.9 °F - 16.0 °F 11% 30.10 in 10.0 mi NE 5.8 mph - N/A   Clear
8:53 PM 64.9 °F - 16.0 °F 15% 30.11 in 10.0 mi East 8.1 mph - N/A   Clear
9:53 PM 64.9 °F - 17.1 °F 16% 30.13 in 10.0 mi SE 6.9 mph - N/A   Clear
10:53 PM 60.1 °F - 18.0 °F 20% 30.14 in 10.0 mi SSE 6.9 mph - N/A   Clear
11:53 PM 57.9 °F - 18.0 °F 21% 30.13 in 10.0 mi SSE 9.2 mph - N/A   Clear